Regional Weather Roundup
Issued by NWS Charleston, SC

Current Version | Previous Version | Graphics & Text | Print | Product List | Glossary On
Versions: 1 2 3 4 5 6 7 8 9 10 11 12 13 14 15 16 17 18 19 20 21 22 23 24 25 26 27 28 29 30 31 32 33 34 35 36 37 38 39 40 41 42 43 44 45 46 47 48 49 50
000 ASUS42 KCHS 282313 RWRCHS REGIONAL WEATHER ROUNDUP NATIONAL WEATHER SERVICE CHARLESTON SC 700 PM EDT WED SEP 28 2016 NOTE: "FAIR" INDICATES FEW OR NO CLOUDS BELOW 12,000 FEET WITH NO SIGNIFICANT WEATHER AND/OR OBSTRUCTIONS TO VISIBILITY. NOT ALL STATIONS ARE QUALITY CONTROLLED. USE DATA WITH CAUTION... ESPECIALLY DEWPOINT OBSERVATIONS. SCZ027-030-031-034>040-042>050-290000- ...SOUTHEAST SOUTH CAROLINA... CITY SKY/WX TMP DP RH WIND PRES REMARKS N CHARLESTON PTCLDY 81 72 74 S10 29.92R WATERFRONT PRK N/A 82 77 84 S10 29.90S HX 90 MOUNT PLEASANT FAIR 81 75 83 S8 29.93R JOHNS ISLAND FAIR 82 77 83 S10G18 29.93R HX 91 PINOPOLIS N/A 84 72 65 S5 29.84R MONCKS CORNER FAIR 81 70 69 S7 29.92R SUMMERVILLE NOT AVBL BEAUFORT MCAS PTCLDY 83 74 74 S5 29.92R BEAUFORT ARPT FAIR 81 73 78 S8 29.92R HAZE HILTON HEAD IS NOT AVBL WALTERBORO CLEAR 82 72 69 S6 29.92R ALLENDALE FAIR 84 70 61 S5 29.89R ...SOUTHERN MIDLANDS AND PEE DEE... CITY SKY/WX TMP DP RH WIND PRES REMARKS GEORGETOWN FAIR 79 73 83 S5 29.94R KINGSTREE FAIR 81 72 74 SE8 29.91R ORANGEBURG CLEAR 83 70 64 S5 29.90R BARNWELL NOT AVBL AIKEN FAIR 79 68 69 S5 29.92S MANNING FAIR 81 70 69 S5 29.90S COLUMBIA MOCLDY 84 69 60 S8 29.87R SUMTER CLEAR 83 70 65 S9 29.87R FLORENCE CLEAR 81 72 74 S8 29.91R MYRTLE BEACH NOT AVBL N MYRTLE BEACH CLEAR 80 72 76 S8 29.94R $$ GAZ063-065-086>088-099>101-113>116-118-119-134>141-150-290000- ...SOUTHEAST GEORGIA... CITY SKY/WX TMP DP RH WIND PRES REMARKS SAVANNAH ARPT MOCLDY 84 71 65 S10 29.91R HUNTER AAF PTCLDY 83 78 84 SE8 29.90R HX 92 FORT STEWART PTCLDY 85 70 61 S6 29.89R STATESBORO MOCLDY 85 71 63 S5 29.91R HX 90 SYLVANIA NOT AVBL CLAXTON CLOUDY 83 73 72 W5 29.91R ...CSRA...CENTRAL AND FAR SOUTHEAST GEORGIA... CITY SKY/WX TMP DP RH WIND PRES REMARKS THOMSON CLEAR 89 67 47 W3 29.92R HX 91 AUGUSTA-BUSH PTCLDY 84 69 60 S10 29.87R AUGUSTA-DANIEL PTCLDY 86 67 52 S8 29.89R SWAINSBORO MOCLDY 82 75 78 CALM 29.91S VIDALIA CLOUDY 81 73 78 S6 29.91S EASTMAN FAIR 82 68 62 CALM 29.92S HAZLEHURST FAIR 87 70 57 N5 29.91R HX 92 ALMA CLOUDY 85 70 60 S10 29.92R WAYCROSS CLOUDY 87 76 70 SW9 29.93S HX 96 JESUP FAIR 86 75 70 SW5 29.92S HX 95 BAXLEY FAIR 88 73 62 CALM 29.91S HX 96 BRUNSWICK MOCLDY 84 77 79 S9 29.94S HX 94 SAINT SIMONS CLOUDY 84 73 69 SW8 29.93S HX 90 $$ SCZ027-028-034-036>038-045-046-048>050-GAZ119-141-290000- ...LAKE AND SUPPLEMENTAL COASTAL OBSERVATIONS... STATION/POSITION TIME TEMP WIND PRES WAVE SWELL AIR SEA DIR/SP/G HT/PER HT/PER/DIR (UTC) (F) (DEG/KT/KT) (MB) (FT/S) (FT/S/D) WINYAH BAY 2145 83 190/ 11 1012.0 LAKE MURRAY 2220 84 150/ 10/ 15 1010.5S ACE BASIN NERRS 2145 83 160/ 2 1013.0 FORT PULASKI 2248 150/ 7/ 12 1013.7R SAPELO ISLAND 2200 84 170/ 11 1013.0 $$ ANZ835-935-AMZ111-154-330-350-352-354-370-450-454-472-290000- ...C-MAN AND BUOY OBSERVATIONS... STATION/POSITION TIME TEMP WIND PRES WAVE SWELL AIR SEA DIR/SP/G HT/PER HT/PER/DIR (UTC) (F) (DEG/KT/KT) (MB) (FT/S) (FT/S/D) BUOY 41004 2250 82 83 180/ 10/ 12 1013.2S 2/11 2/120/11 BUOY 41008 2250 82 83 160/ 16/ 16 1013.3R 2/12 2/ 80/12 FOLLY BEACH CMAN 2300 81 180/ 14/ 17 1013.7R CAPERS NEARSHORE 2208 82 82 190/ 14/ 17 1013.1F FRIPP NEARSHORE 2208 83 82 180/ 14/ 17 1013.1S STATION/POSITION TIME TEMP WIND PRES WAVE SWELL AIR SEA DIR/SP/G HT/PER HT/PER/DIR (UTC) (F) (DEG/KT/KT) (MB) (FT/S) (FT/S/D) 5E ST. MARYS GA 2201 83 N/A 2/13 2/ 90/13 FRYING PAN BUOY 2250 81 83 160/ 10/ 12 1013.8F 3/11 3/110/11 BUOY 41025 2250 80 84 110/ 6/ 10 1015.3R 4/11 3/ 80/11 CAPE LOOKOUT NC 2300 79 130/ 7/ 8 1014.8R BUOY 41002 2250 82 83 210/ 14/ 16 1015.4R 5/ 6 3/ 60/11 BUOY 41010 NOT AVBL ST AUGUSTINE FL 2300 77 84 230/ 4/ 6 1015.7F $$

USA.gov is the U.S. government's official web portal to all federal, state and local government web resources and services.